Hourly Data Report for August 05, 2019

QUALICUM BEACH AIRPORT
BRITISH COLUMBIA
Current Station Operator: ECCC - MSC

49°20'14.000" N
124°23'38.000" W
58.20 m
1026562
71766
VOQ

Download Data

Hourly Data (August 2019)
Hourly Data Report for August 5, 2019
TIME
LST
Temp Definition
°C
Dew Point Definition
°C
Rel Hum Definition
%
Precip. Amount Definition
mm

Wind Dir Definition
10's deg

Wind Spd Definition
km/h
Visibility Definition
km
Stn Press Definition
kPa
Hmdx Definition


Wind Chill Definition


Weather Definition


00:00 17.4 10.8 65 0.0 28 5   100.86     LegendNANA
01:00 16.4 11.5 73 0.0 0 1   100.89     LegendNANA
02:00 15.4 10.7 73 0.0 25 3   100.91     LegendNANA
03:00 14.7 10.6 77 0.0 27 2   100.93     LegendNANA
04:00 13.3 10.3 83 0.0 24 3   100.95     LegendNANA
05:00 13.2 10.5 84 0.0 26 2   100.99     LegendNANA
06:00 14.1 11.3 83 0.0 26 2   101.04     LegendNANA
07:00 19.9 11.6 59 0.0 28 6   101.05     LegendNANA
08:00 21.8 12.0 54 0.0 32 7   101.04     LegendNANA
09:00 22.4 13.4 57 0.0 31 8   101.05 25   LegendNANA
10:00 22.2 13.7 59 0.0 32 11   101.06 25   LegendNANA
11:00 24.4 13.4 50 0.0 34 7   101.06 27   LegendNANA
12:00 24.7 11.4 43 0.0 35 8   101.04 27   LegendNANA
13:00 24.9 10.6 41 0.0 3 8   100.99 26   LegendNANA
14:00 26.1 8.5 33 0.0 36 6   100.92 27   LegendNANA
15:00 28.1 8.8 30 0.0 3 5   100.85 29   LegendNANA
16:00 28.4 8.6 29 0.0 36 6   100.78 29   LegendNANA
17:00 28.2 8.8 30 0.0 1 7   100.75 29   LegendNANA
18:00 28.7 8.5 28 0.0 30 6   100.70 29   LegendNANA
19:00 27.4 9.6 33 0.0 32 4   100.67 28   LegendNANA
20:00 22.6 11.6 50 0.0 27 1   100.69 25   LegendNANA
21:00 20.3 11.6 57 0.0 25 3   100.71     LegendNANA
22:00 18.5 12.6 69 0.0 24 1   100.71     LegendNANA
23:00 18.1 13.2 73 0.0 27 3   100.74     LegendNANA

Notes on Data Quality.

Legend

  • E = Estimated
  • M = Missing
  • NA = Not Available*
  • [empty] = Indicates an unobserved value
Date modified: